STARLINK-1814, 46712

Orbit data source: Space-Track

STARLINK-1814, 46712 is a payload satellite owned by SpaceX/Seattle (US) in LEO that was launched on Sun, 18 Oct 2020 UTC via an FALCON 9 launch vehicle from the Air Force Eastern Test Range (AFETR). Payload-class satellites include a variety of spacecraft equipped with specific instruments for various scientific and technological missions. These include communications satellites like Starlink; space stations such as the ISS; scientific satellites like the Hubble; Earth observation satellites from companies like Planet Labs, Umbra, and HawkEye 360; GPS; miniature CubeSats for education and research; and military/defense satellites.

Loading next visibility...
Identifier
46712, 2020-073AU
Orbit
LEO
Country
Flag of USUS
Related business
Manufacturer
SpaceX/Seattle
Mission
Operational Commercial Communications
Bus & Motor
STARLINK, Unknown motor
Mass
260 kg wet, ~248 kg dry
Launch date (UTC)
2020-10-18 (5 years ago)
Launch vehicle
FALCON 9
Launch site
Air Force Eastern Test Range (AFETR)
Object type
Payload
Rocket body
Debris
Shape & HBR
Box + 1 Pan, 10.1 m
Radar Cross Section
13.562 m², Large (>1 m²)

Expand to show TLE details & history
Last TLE update: 18 hours ago

TLE from 18 hours ago
0 STARLINK-1814
1 46712U 20073AU  25286.41486334  .00116988  00000-0  33350-2 0  9997
2 46712  53.0541 180.3873 0001560 133.1539 226.9594 15.35189101274966
Epoch: 2025-10-13T09:57Z
TLE epoch observation values (Epoch: 2025-10-13T09:57:24.192Z)
Latitude
0.00004°
Longitude
8.81855°
Altitude
461.977 km
Speed
7.636 km/s
True Right ascension
12h 01m 32s
True Declination
0° 00' 00"
Sunlit
Object was in daylight at epoch
Visualization orbit readout
Latitude
Unknown
Longitude
Unknown
Altitude
Unknown
Speed
Unknown
Apparent Right ascension
Unknown
Apparent Declination
Unknown
Sunlit
N/A
Visualization observer readout
Local Sidereal Time
22:09:58
Azimuth
Unknown
Elevation
Unknown
Doppler factor
Unknown
Orbital elements
Apogee altitude
461.7 km
Perigee altitude
459.566 km
Semi-major axis
6,838.77 km
Eccentricity
0.00016
Inclination
53.0541°
RAAN
180.3873°
Arg. of periapsis
133.1539°
True anomaly
226.94634°
Mean anomaly
226.9594°
Eccentric anomaly
226.95287°
Mean motion
3.83775 °/min
Orbital period
93.81 mins
BSTAR
0.003335
Loading maneuver chart data...
Computing Atmospheric mass density...
Loading historical data...
Loading historical data...
Loading historical data...
Loading historical data...
Loading historical data...
Loading historical data...
Loading historical data...

Documentation

Showing up to 5 results
|